AC5JC-1 Weather Reports


Display with metric or nautical units.
time (UTC)temp
F
wind
direction
speed
MPH
gust
MPH
rain 1hr
in
rain 24hr
in
rain mn
in
humidity
%
barometer
mb
20260504043056 66 120 1.0 2.0 0.00 0.00 0.00 65 1016.1
20260504042536 66 117 1.0 1.0 0.00 0.00 0.00 65 1016.2
20260504042035 66 120 1.0 1.0 0.00 0.00 0.00 65 1016.2
20260504041622 67 124 1.0 1.0 0.00 0.00 0.00 64 1016.3
20260504041102 67 122 1.0 1.0 0.00 0.00 0.00 63 1016.4
20260504040535 67 134 1.0 2.0 0.00 0.00 0.00 63 1016.4
20260504040036 67 124 1.0 2.0 0.00 0.00 0.00 63 1016.3
20260504035535 67 128 1.0 2.0 0.00 0.00 0.00 63 1016.2
20260504035030 67 126 1.0 2.0 0.00 0.00 0.00 62 1016.3
20260504034614 68 126 1.0 2.0 0.00 0.00 0.00 61 1016.2
20260504034053 68 124 1.0 2.0 0.00 0.00 0.00 61 1016.2
20260504033535 68 122 1.0 2.0 0.00 0.00 0.00 61 1016.2
20260504033055 68 126 1.0 2.0 0.00 0.00 0.00 61 1016.2
20260504032535 68 117 0.0 1.0 0.00 0.00 0.00 61 1016.1
20260504032035 68 126 1.0 2.0 0.00 0.00 0.00 60 1016.0
20260504031622 68 130 1.0 2.0 0.00 0.00 0.00 59 1016.1
20260504031101 68 133 1.0 2.0 0.00 0.00 0.00 59 1016.1
20260504030535 69 131 1.0 2.0 0.00 0.00 0.00 58 1016.1
20260504030036 69 130 1.0 2.0 0.00 0.00 0.00 58 1015.9
20260504025535 69 130 1.0 2.0 0.00 0.00 0.00 58 1016.0
20260504025035 69 124 1.0 2.0 0.00 0.00 0.00 58 1015.8
20260504024527 69 130 1.0 1.0 0.00 0.00 0.00 57 1016.0
20260504024109 69 128 1.0 2.0 0.00 0.00 0.00 56 1016.0
20260504023549 69 123 1.0 1.0 0.00 0.00 0.00 57 1015.9
20260504023036 69 130 1.0 2.0 0.00 0.00 0.00 57 1015.8
20260504022556 69 113 1.0 2.0 0.00 0.00 0.00 57 1015.7
20260504022035 69 123 1.0 2.0 0.00 0.00 0.00 57 1015.8
20260504021535 69 118 1.0 2.0 0.00 0.00 0.00 57 1015.6
20260504021117 69 128 1.0 2.0 0.00 0.00 0.00 55 1015.5
20260504020617 69 122 1.0 1.0 0.00 0.00 0.00 55 1015.7
20260504020036 70 122 0.0 1.0 0.00 0.00 0.00 55 1015.7
20260504015555 70 126 1.0 2.0 0.00 0.00 0.00 53 1015.7
20260504015034 71 127 1.0 2.0 0.00 0.00 0.00 53 1015.7
20260504014527 71 134 1.0 2.0 0.00 0.00 0.00 51 1015.6
20260504014109 70 132 1.0 2.0 0.00 0.00 0.00 53 1015.8
20260504013610 70 127 1.0 2.0 0.00 0.00 0.00 53 1015.6
20260504013036 70 124 1.0 1.0 0.00 0.00 0.00 55 1015.5
20260504012535 70 117 0.0 1.0 0.00 0.00 0.00 55 1015.3
20260504012035 70 116 0.0 1.0 0.00 0.00 0.00 56 1015.5
20260504011621 71 113 0.0 1.0 0.00 0.00 0.00 54 1015.4
20260504011121 71 113 0.0 1.0 0.00 0.00 0.00 53 1015.3
20260504010602 71 110 0.0 1.0 0.00 0.00 0.00 53 1015.3
20260504005605 73 0.0 0.0 0.00 0.00 0.00 51 1015.3
20260504005046 73 110 0.0 1.0 0.00 0.00 0.00 50 1015.2
20260504004526 74 118 1.0 1.0 0.00 0.00 0.00 48 1015.1
20260504004109 74 120 1.0 2.0 0.00 0.00 0.00 48 1015.3
20260504003550 75 123 1.0 2.0 0.00 0.00 0.00 46 1015.3
20260504003031 75 126 1.0 1.0 0.00 0.00 0.00 46 1015.3
20260504002614 75 119 1.0 1.0 0.00 0.00 0.00 45 1015.3
20260504002053 75 120 1.0 1.0 0.00 0.00 0.00 44 1015.5
20260504001535 76 126 1.0 2.0 0.00 0.00 0.00 43 1015.5
20260504001117 76 150 1.0 3.0 0.00 0.00 0.00 42 1015.5
20260504000558 76 127 1.0 2.0 0.00 0.00 0.00 42 1015.6
20260504000038 77 128 1.0 2.0 0.00 0.00 0.00 42 1015.4
20260503235622 77 155 2.0 3.0 0.00 0.00 0.00 42 1015.5
20260503235101 78 124 1.0 1.0 0.00 0.00 0.00 42 1015.6
20260503234542 78 144 1.0 2.0 0.00 0.00 0.00 41 1015.5
20260503234023 79 130 1.0 2.0 0.00 0.00 0.00 41 1015.6
20260503233606 80 125 1.0 2.0 0.00 0.00 0.00 39 1015.6
20260503233046 79 118 1.0 1.0 0.00 0.00 0.00 39 1015.7
20260503232526 79 137 1.0 2.0 0.00 0.00 0.00 40 1015.8
20260503232109 79 161 1.0 2.0 0.00 0.00 0.00 39 1015.7
20260503231550 79 132 1.0 2.0 0.00 0.00 0.00 40 1015.8
20260503231030 79 171 2.0 5.0 0.00 0.00 0.00 38 1015.9
20260503230613 80 135 1.0 2.0 0.00 0.00 0.00 40 1015.9
20260503230114 80 149 2.0 3.0 0.00 0.00 0.00 39 1015.9
20260503225534 80 164 2.0 3.0 0.00 0.00 0.00 39 1016.0
20260503225138 81 139 1.0 2.0 0.00 0.00 0.00 39 1016.0
20260503224558 80 139 1.0 2.0 0.00 0.00 0.00 40 1016.0
20260503224035 80 134 1.0 3.0 0.00 0.00 0.00 39 1016.2
20260503223622 81 163 1.0 3.0 0.00 0.00 0.00 38 1016.2
20260503223102 81 168 2.0 3.0 0.00 0.00 0.00 38 1016.3
20260503222542 82 159 2.0 5.0 0.00 0.00 0.00 38 1016.2
20260503222023 82 109 1.0 2.0 0.00 0.00 0.00 38 1016.1
20260503221606 82 134 1.0 2.0 0.00 0.00 0.00 39 1016.2
20260503221106 81 176 1.0 3.0 0.00 0.00 0.00 39 1016.3
20260503220526 81 159 2.0 5.0 0.00 0.00 0.00 37 1016.4
20260503220110 82 155 2.0 3.0 0.00 0.00 0.00 37 1016.4
20260503215549 82 137 1.0 2.0 0.00 0.00 0.00 37 1016.5
20260503215031 82 137 1.0 2.0 0.00 0.00 0.00 35 1016.6
20260503214614 82 172 2.0 3.0 0.00 0.00 0.00 36 1016.8
20260503214054 82 155 2.0 2.0 0.00 0.00 0.00 37 1016.8
20260503213535 82 150 1.0 3.0 0.00 0.00 0.00 37 1016.9
20260503213102 82 135 2.0 3.0 0.00 0.00 0.00 38 1016.9
20260503212542 83 109 1.0 3.0 0.00 0.00 0.00 36 1016.9
20260503212023 83 113 2.0 5.0 0.00 0.00 0.00 36 1017.1
20260503211550 83 160 1.0 2.0 0.00 0.00 0.00 34 1017.1
20260503211031 82 184 1.0 3.0 0.00 0.00 0.00 35 1017.3
20260503210614 83 45 2.0 5.0 0.00 0.00 0.00 35 1017.4
20260503210054 82 155 1.0 3.0 0.00 0.00 0.00 36 1017.4
20260503205635 83 153 2.0 3.0 0.00 0.00 0.00 37 1017.5
20260503205118 83 196 2.0 5.0 0.00 0.00 0.00 34 1017.6
20260503204638 82 150 2.0 5.0 0.00 0.00 0.00 35 1017.7
20260503204036 82 178 2.0 3.0 0.00 0.00 0.00 36 1017.8
20260503203555 83 147 2.0 3.0 0.00 0.00 0.00 37 1017.9
20260503203036 83 152 1.0 3.0 0.00 0.00 0.00 36 1017.9
20260503202555 83 164 1.0 5.0 0.00 0.00 0.00 37 1018.0
20260503202035 82 139 1.0 3.0 0.00 0.00 0.00 36 1018.1
20260503201556 82 215 2.0 3.0 0.00 0.00 0.00 36 1018.2
20260503201035 83 164 2.0 3.0 0.00 0.00 0.00 37 1018.3
20260503200526 83 186 2.0 3.0 0.00 0.00 0.00 38 1018.3
20260503200110 82 145 1.0 3.0 0.00 0.00 0.00 36 1018.4
20260503195550 82 154 1.0 3.0 0.00 0.00 0.00 37 1018.4
20260503195050 82 158 2.0 5.0 0.00 0.00 0.00 36 1018.7
20260503194614 82 154 1.0 3.0 0.00 0.00 0.00 37 1018.6
20260503194054 82 140 1.0 2.0 0.00 0.00 0.00 40 1018.7
20260503193534 82 165 1.0 2.0 0.00 0.00 0.00 38 1018.8
20260503193118 82 112 1.0 2.0 0.00 0.00 0.00 39 1018.9
20260503192558 81 202 1.0 3.0 0.00 0.00 0.00 40 1019.1
20260503192034 80 114 1.0 3.0 0.00 0.00 0.00 40 1019.2
20260503191622 81 124 1.0 1.0 0.00 0.00 0.00 42 1019.2
20260503191102 81 165 1.0 3.0 0.00 0.00 0.00 39 1019.2
20260503190535 82 176 2.0 5.0 0.00 0.00 0.00 39 1019.4
20260503190023 82 163 2.0 3.0 0.00 0.00 0.00 41 1019.4
20260503185606 82 178 1.0 3.0 0.00 0.00 0.00 40 1019.5
20260503185115 82 161 1.0 2.0 0.00 0.00 0.00 42 1019.6
20260503184548 81 199 1.0 3.0 0.00 0.00 0.00 40 1019.7
20260503184110 81 164 2.0 3.0 0.00 0.00 0.00 41 1019.8
20260503183550 81 137 1.0 2.0 0.00 0.00 0.00 42 1019.8
20260503183050 81 172 2.0 3.0 0.00 0.00 0.00 42 1019.9
20260503182614 80 127 1.0 2.0 0.00 0.00 0.00 42 1019.9
20260503182054 80 224 3.0 6.0 0.00 0.00 0.00 44 1019.9
20260503181535 80 174 1.0 2.0 0.00 0.00 0.00 41 1020.2
20260503181118 80 141 1.0 2.0 0.00 0.00 0.00 40 1020.3
20260503180558 81 171 1.0 3.0 0.00 0.00 0.00 43 1020.3
20260503180035 80 84 1.0 3.0 0.00 0.00 0.00 45 1020.4
20260503175642 80 209 2.0 2.0 0.00 0.00 0.00 45 1020.5
20260503175103 80 147 1.0 3.0 0.00 0.00 0.00 44 1020.5
20260503174535 79 145 2.0 3.0 0.00 0.00 0.00 45 1020.6
20260503174023 79 131 2.0 3.0 0.00 0.00 0.00 46 1020.7
20260503173606 79 154 1.0 2.0 0.00 0.00 0.00 47 1020.9
20260503173035 79 175 2.0 3.0 0.00 0.00 0.00 49 1020.8
20260503172527 79 143 1.0 3.0 0.00 0.00 0.00 47 1020.9
20260503172110 79 143 1.0 3.0 0.00 0.00 0.00 48 1021.0
20260503171550 79 117 1.0 2.0 0.00 0.00 0.00 49 1021.1
20260503171030 78 136 1.0 2.0 0.00 0.00 0.00 49 1021.1
20260503170614 78 139 2.0 2.0 0.00 0.00 0.00 49 1021.2
20260503150527 72 145 1.0 2.0 0.00 0.00 0.00 56 1021.8
20260503150110 72 110 1.0 1.0 0.00 0.00 0.00 59 1021.7
20260503131031 60 100 0.0 1.0 0.00 0.00 0.00 78 1021.4
20260503130614 59 0.0 0.0 0.00 0.00 0.00 80 1021.3
20260503110527 54 0.0 0.0 0.00 0.00 0.00 86 1020.5
20260503110111 54 0.0 0.0 0.00 0.00 0.00 85 1020.3
20260503100131 55 0.0 0.0 0.00 0.00 0.00 82 1020.3
20260503081536 55 0.0 0.0 0.00 0.00 0.00 82 1020.3
20260503081031 55 0.0 0.0 0.00 0.00 0.00 82 1020.3
20260503080615 56 0.0 0.0 0.00 0.00 0.00 81 1020.3
20260503072535 57 0.0 0.0 0.00 0.00 0.00 81 1020.5
20260503072035 57 0.0 0.0 0.00 0.00 0.00 81 1020.6
20260503071536 56 0.0 0.0 0.00 0.00 0.00 81 1020.7
20260503071031 56 0.0 0.0 0.00 0.00 0.00 82 1020.7
20260503070615 56 0.0 0.0 0.00 0.00 0.00 83 1020.7
20260503055034 57 0.0 0.0 0.00 0.00 0.00 84 1020.6
20260503054535 57 0.0 0.0 0.00 0.00 0.00 83 1020.5
20260503054034 57 98 0.0 1.0 0.00 0.00 0.00 83 1020.5
20260503053535 58 0.0 0.0 0.00 0.00 0.00 83 1020.6
20260503053035 58 0.0 0.0 0.00 0.00 0.00 82 1020.5
20260503052535 58 0.0 0.0 0.00 0.00 0.00 81 1020.4
20260503052034 58 0.0 0.0 0.00 0.00 0.00 81 1020.4
20260503051535 59 0.0 0.0 0.00 0.00 0.00 80 1020.3
20260503051034 59 99 0.0 1.0 0.00 0.00 0.00 80 1020.4
20260503050555 59 97 0.0 1.0 0.00 0.00 0.00 80 1020.2
20260503050116 59 0.0 0.0 0.00 0.00 0.00 80 1020.1
20260503045534 59 0.0 0.0 0.00 0.00 0.00 80 1020.1
20260503045034 59 96 0.0 1.0 0.00 0.00 0.00 80 1020.2
20260503044527 59 97 0.0 1.0 0.00 0.00 0.00 80 1020.2
20260503044111 59 0.0 0.0 0.00 0.00 0.00 79 1020.2
20260503043611 59 95 0.0 1.0 0.00 0.00 0.00 79 1020.2